Location: G�ndlingen
(48.0142°N, 7.6396°E)
Time: 18:37:07
(UTC+00:00)

USA 81 - Pass Details

Date: 05 July 2020
Orbit: 786 x 788 km, 85.0° (Epoch: 17 July)

Event Time Altitude Azimuth Distance (km) Brightness Sun altitude
Exits shadow 21:19:52 11° 188° (S) 2,295 6.0 -13.2°
Maximum altitude 21:25:00 82° 275° (W) 801 4.1 -13.6°
Drops below altitude 10° 21:30:19 10° 4° (N) 2,358 7.4 -14.0°
Sets 21:32:41 0° 6° (N) 3,291 8.3 -14.2°
